Time,TemperatureF,DewpointF,PressureIn,WindDirection,WindDirectionDegrees,WindSpeedMPH,WindSpeedGustMPH,Humidity,HourlyPrecipIn,Conditions,Clouds,dailyrainin,SoftwareType,DateUTC
2013-04-14 00:03:00,35.0,35.0,-100.00,SW,221,0.0,2.0,98,-99.99,,,-99.99,,2013-04-14 04:03:00,
2013-04-14 00:13:00,35.0,35.0,-100.00,SSE,147,1.0,2.0,99,-99.99,,,-99.99,,2013-04-14 04:13:00,
2013-04-14 00:23:00,35.0,35.0,-100.00,SW,222,2.0,4.0,99,-99.99,,,-99.99,,2013-04-14 04:23:00,
2013-04-14 00:33:00,35.0,35.0,-100.00,WSW,239,1.0,2.0,99,-99.99,,,-99.99,,2013-04-14 04:33:00,
2013-04-14 00:43:00,35.0,34.0,-100.00,East,80,0.0,2.0,99,-99.99,,,-99.99,,2013-04-14 04:43:00,
2013-04-14 00:52:00,35.0,34.0,-100.00,East,88,0.0,2.0,99,-99.99,,,-99.99,,2013-04-14 04:52:00,
2013-04-14 01:03:00,35.0,35.0,-100.00,SSE,165,1.0,2.0,99,-99.99,,,-99.99,,2013-04-14 05:03:00,
2013-04-14 01:12:00,36.0,36.0,-100.00,SW,215,3.0,4.0,99,-99.99,,,-99.99,,2013-04-14 05:12:00,
2013-04-14 01:23:00,36.0,36.0,-100.00,SSE,168,2.0,4.0,99,-99.99,,,-99.99,,2013-04-14 05:23:00,
2013-04-14 01:32:00,35.0,35.0,-100.00,WSW,253,1.0,2.0,99,-99.99,,,-99.99,,2013-04-14 05:32:00,
2013-04-14 01:42:00,34.0,34.0,-100.00,ENE,67,1.0,2.0,99,-99.99,,,-99.99,,2013-04-14 05:42:00,
2013-04-14 01:52:00,33.0,33.0,-100.00,WNW,284,2.0,4.0,99,-99.99,,,-99.99,,2013-04-14 05:52:00,
2013-04-14 02:02:00,33.0,33.0,-100.00,South,190,1.0,2.0,99,-99.99,,,-99.99,,2013-04-14 06:02:00,
2013-04-14 02:12:00,33.0,33.0,-100.00,WSW,256,2.0,4.0,100,-99.99,,,-99.99,,2013-04-14 06:12:00,
2013-04-14 02:22:00,33.0,33.0,-100.00,West,269,3.0,4.0,100,-99.99,,,-99.99,,2013-04-14 06:22:00,
2013-04-14 02:32:00,33.0,33.0,-100.00,SE,141,3.0,4.0,100,-99.99,,,-99.99,,2013-04-14 06:32:00,
2013-04-14 02:42:00,32.0,32.0,-100.00,NW,311,0.0,2.0,100,-99.99,,,-99.99,,2013-04-14 06:42:00,
2013-04-14 02:52:00,31.0,31.0,-100.00,West,270,0.0,2.0,100,-99.99,,,-99.99,,2013-04-14 06:52:00,
2013-04-14 03:03:00,32.0,32.0,-100.00,NW,314,1.0,2.0,100,-99.99,,,-99.99,,2013-04-14 07:03:00,
2013-04-14 03:12:00,32.0,32.0,-100.00,SSW,192,1.0,2.0,100,-99.99,,,-99.99,,2013-04-14 07:12:00,
2013-04-14 03:22:00,32.0,32.0,-100.00,East,90,1.0,2.0,100,-99.99,,,-99.99,,2013-04-14 07:22:00,
2013-04-14 03:33:00,32.0,32.0,-100.00,NE,38,1.0,2.0,100,-99.99,,,-99.99,,2013-04-14 07:33:00,
2013-04-14 03:42:00,32.0,32.0,-100.00,West,271,1.0,2.0,100,-99.99,,,-99.99,,2013-04-14 07:42:00,
2013-04-14 03:52:00,32.0,32.0,-100.00,WSW,248,2.0,4.0,100,-99.99,,,-99.99,,2013-04-14 07:52:00,
2013-04-14 04:03:00,32.0,32.0,-100.00,WSW,248,2.0,4.0,100,-99.99,,,-99.99,,2013-04-14 08:03:00,
2013-04-14 04:12:00,32.0,32.0,-100.00,SE,135,1.0,2.0,100,-99.99,,,-99.99,,2013-04-14 08:12:00,
2013-04-14 04:23:00,32.0,32.0,-100.00,WSW,242,1.0,2.0,100,-99.99,,,-99.99,,2013-04-14 08:23:00,
2013-04-14 04:33:00,32.0,32.0,-100.00,NE,36,0.0,2.0,100,-99.99,,,-99.99,,2013-04-14 08:33:00,
2013-04-14 04:42:00,32.0,32.0,-100.00,ESE,108,3.0,4.0,100,-99.99,,,-99.99,,2013-04-14 08:42:00,
2013-04-14 04:52:00,32.0,32.0,-100.00,SW,233,2.0,4.0,100,-99.99,,,-99.99,,2013-04-14 08:52:00,
2013-04-14 05:03:00,32.0,32.0,-100.00,SW,223,5.0,6.0,100,-99.99,,,-99.99,,2013-04-14 09:03:00,
2013-04-14 05:12:00,32.0,32.0,-100.00,SSE,167,3.0,6.0,100,-99.99,,,-99.99,,2013-04-14 09:12:00,
2013-04-14 05:22:00,32.0,32.0,-100.00,NE,46,1.0,2.0,100,-99.99,,,-99.99,,2013-04-14 09:22:00,
2013-04-14 05:33:00,32.0,32.0,-100.00,ESE,114,0.0,2.0,100,-99.99,,,-99.99,,2013-04-14 09:33:00,
2013-04-14 05:43:00,32.0,32.0,-100.00,SSW,203,1.0,2.0,100,-99.99,,,-99.99,,2013-04-14 09:43:00,
2013-04-14 05:53:00,32.0,32.0,-100.00,South,186,1.0,2.0,100,-99.99,,,-99.99,,2013-04-14 09:53:00,
2013-04-14 06:03:00,32.0,32.0,-100.00,SE,142,0.0,2.0,99,-99.99,,,-99.99,,2013-04-14 10:03:00,
2013-04-14 06:13:00,32.0,32.0,-100.00,SSW,200,1.0,4.0,100,-99.99,,,-99.99,,2013-04-14 10:13:00,
2013-04-14 06:23:00,32.0,32.0,-100.00,SW,224,3.0,4.0,100,-99.99,,,-99.99,,2013-04-14 10:23:00,
2013-04-14 06:33:00,32.0,32.0,-100.00,ESE,118,2.0,4.0,100,-99.99,,,-99.99,,2013-04-14 10:33:00,
2013-04-14 06:42:00,31.0,31.0,-100.00,NE,38,2.0,4.0,100,-99.99,,,-99.99,,2013-04-14 10:42:00,
2013-04-14 06:52:00,31.0,31.0,-100.00,WSW,257,0.0,2.0,100,-99.99,,,-99.99,,2013-04-14 10:52:00,
2013-04-14 07:02:00,31.0,31.0,-100.00,NE,39,0.0,0.0,100,-99.99,,,-99.99,,2013-04-14 11:02:00,
2013-04-14 07:13:00,31.0,31.0,-100.00,WNW,302,0.0,0.0,100,-99.99,,,-99.99,,2013-04-14 11:13:00,
2013-04-14 07:23:00,31.0,31.0,-100.00,NW,304,0.0,0.0,100,-99.99,,,-99.99,,2013-04-14 11:23:00,
2013-04-14 07:32:00,32.0,32.0,-100.00,West,261,0.0,0.0,100,-99.99,,,-99.99,,2013-04-14 11:32:00,
2013-04-14 07:42:00,32.0,32.0,-100.00,NE,41,0.0,0.0,100,-99.99,,,-99.99,,2013-04-14 11:42:00,
2013-04-14 07:52:00,32.0,32.0,-100.00,ENE,66,0.0,0.0,100,-99.99,,,-99.99,,2013-04-14 11:52:00,
2013-04-14 08:02:00,32.0,32.0,-100.00,ESE,111,0.0,0.0,100,-99.99,,,-99.99,,2013-04-14 12:02:00,
2013-04-14 08:12:00,32.0,32.0,-100.00,South,179,0.0,0.0,100,-99.99,,,-99.99,,2013-04-14 12:12:00,
2013-04-14 08:22:00,32.0,32.0,-100.00,ENE,70,0.0,0.0,100,-99.99,,,-99.99,,2013-04-14 12:22:00,
2013-04-14 08:32:00,32.0,32.0,-100.00,ESE,103,1.0,2.0,100,-99.99,,,-99.99,,2013-04-14 12:32:00,
2013-04-14 08:42:00,32.0,32.0,-100.00,NNE,23,0.0,0.0,100,-99.99,,,-99.99,,2013-04-14 12:42:00,
2013-04-14 08:52:00,33.0,33.0,-100.00,NNE,26,0.0,2.0,100,-99.99,,,-99.99,,2013-04-14 12:52:00,
2013-04-14 09:02:00,33.0,33.0,-100.00,West,261,0.0,2.0,100,-99.99,,,-99.99,,2013-04-14 13:02:00,
2013-04-14 09:12:00,34.0,34.0,-100.00,SW,220,1.0,2.0,100,-99.99,,,-99.99,,2013-04-14 13:12:00,
2013-04-14 09:23:00,35.0,35.0,-100.00,SSW,205,3.0,6.0,100,-99.99,,,-99.99,,2013-04-14 13:23:00,
2013-04-14 09:33:00,35.0,35.0,-100.00,NNE,26,1.0,4.0,100,-99.99,,,-99.99,,2013-04-14 13:33:00,
2013-04-14 09:42:00,35.0,35.0,-100.00,ESE,118,2.0,4.0,100,-99.99,,,-99.99,,2013-04-14 13:42:00,
2013-04-14 09:52:00,35.0,35.0,-100.00,NNE,31,3.0,6.0,100,-99.99,,,-99.99,,2013-04-14 13:52:00,
2013-04-14 10:02:00,35.0,35.0,-100.00,SSE,157,2.0,4.0,100,-99.99,,,-99.99,,2013-04-14 14:02:00,
2013-04-14 10:12:00,36.0,36.0,-100.00,East,87,3.0,4.0,100,-99.99,,,-99.99,,2013-04-14 14:12:00,
2013-04-14 10:22:00,36.0,36.0,-100.00,East,88,2.0,4.0,100,-99.99,,,-99.99,,2013-04-14 14:22:00,
2013-04-14 10:32:00,37.0,37.0,-100.00,SW,232,4.0,10.0,100,-99.99,,,-99.99,,2013-04-14 14:32:00,
2013-04-14 10:42:00,38.0,38.0,-100.00,SSW,212,3.0,6.0,100,-99.99,,,-99.99,,2013-04-14 14:42:00,
2013-04-14 10:52:00,37.0,37.0,-100.00,WSW,254,5.0,10.0,100,-99.99,,,-99.99,,2013-04-14 14:52:00,
2013-04-14 11:03:00,37.0,37.0,-100.00,South,182,6.0,11.0,98,-99.99,,,-99.99,,2013-04-14 15:03:00,
2013-04-14 11:12:00,38.0,37.0,-100.00,SSW,213,6.0,11.0,93,-99.99,,,-99.99,,2013-04-14 15:12:00,
2013-04-14 11:22:00,38.0,36.0,-100.00,NNE,27,7.0,11.0,91,-99.99,,,-99.99,,2013-04-14 15:22:00,
2013-04-14 11:33:00,38.0,36.0,-100.00,SSW,193,5.0,10.0,90,-99.99,,,-99.99,,2013-04-14 15:33:00,
2013-04-14 11:43:00,40.0,36.0,-100.00,SW,227,6.0,11.0,84,-99.99,,,-99.99,,2013-04-14 15:43:00,
2013-04-14 11:53:00,39.0,34.0,-100.00,SW,227,5.0,13.0,80,-99.99,,,-99.99,,2013-04-14 15:53:00,
2013-04-14 12:04:00,41.0,33.0,-100.00,West,259,8.0,15.0,75,-99.99,,,-99.99,,2013-04-14 16:04:00,
2013-04-14 12:13:00,42.0,33.0,-100.00,SW,215,8.0,13.0,70,-99.99,,,-99.99,,2013-04-14 16:13:00,
2013-04-14 12:23:00,42.0,31.0,-100.00,South,176,10.0,20.0,64,-99.99,,,-99.99,,2013-04-14 16:23:00,
2013-04-14 12:33:00,43.0,31.0,-100.00,SSW,196,10.0,22.0,62,-99.99,,,-99.99,,2013-04-14 16:33:00,
2013-04-14 12:43:00,43.0,31.0,-100.00,SW,228,8.0,19.0,61,-99.99,,,-99.99,,2013-04-14 16:43:00,
2013-04-14 12:53:00,41.0,30.0,-100.00,NNE,29,9.0,19.0,62,-99.99,,,-99.99,,2013-04-14 16:53:00,
2013-04-14 13:02:00,42.0,32.0,-100.00,NNE,16,7.0,19.0,66,-99.99,,,-99.99,,2013-04-14 17:02:00,
2013-04-14 13:13:00,42.0,31.0,-100.00,WSW,248,8.0,13.0,64,-99.99,,,-99.99,,2013-04-14 17:13:00,
2013-04-14 13:22:00,44.0,30.0,-100.00,South,183,9.0,17.0,58,-99.99,,,-99.99,,2013-04-14 17:22:00,
2013-04-14 13:33:00,44.0,30.0,-100.00,SSW,202,7.0,11.0,58,-99.99,,,-99.99,,2013-04-14 17:33:00,
2013-04-14 13:42:00,44.0,30.0,-100.00,SSE,163,6.0,13.0,58,-99.99,,,-99.99,,2013-04-14 17:42:00,
2013-04-14 13:52:00,43.0,29.0,-100.00,SE,126,7.0,11.0,57,-99.99,,,-99.99,,2013-04-14 17:52:00,
2013-04-14 14:03:00,43.0,30.0,-100.00,SW,235,6.0,11.0,60,-99.99,,,-99.99,,2013-04-14 18:03:00,
2013-04-14 14:12:00,44.0,31.0,-100.00,SSW,193,8.0,17.0,60,-99.99,,,-99.99,,2013-04-14 18:12:00,
2013-04-14 14:22:00,44.0,31.0,-100.00,East,89,7.0,13.0,59,-99.99,,,-99.99,,2013-04-14 18:22:00,
2013-04-14 14:33:00,45.0,31.0,-100.00,North,1,5.0,11.0,58,-99.99,,,-99.99,,2013-04-14 18:33:00,
2013-04-14 14:43:00,45.0,30.0,-100.00,NNE,13,7.0,13.0,53,-99.99,,,-99.99,,2013-04-14 18:43:00,
2013-04-14 14:53:00,44.0,30.0,-100.00,WNW,299,8.0,15.0,57,-99.99,,,-99.99,,2013-04-14 18:53:00,
2013-04-14 15:04:00,43.0,30.0,-100.00,WNW,287,6.0,15.0,59,-99.99,,,-99.99,,2013-04-14 19:04:00,
2013-04-14 15:12:00,42.0,30.0,-100.00,ENE,61,8.0,17.0,61,-99.99,,,-99.99,,2013-04-14 19:12:00,
2013-04-14 15:22:00,41.0,31.0,-100.00,South,188,5.0,10.0,67,-99.99,,,-99.99,,2013-04-14 19:22:00,
2013-04-14 15:32:00,41.0,31.0,-100.00,SSW,201,5.0,10.0,67,-99.99,,,-99.99,,2013-04-14 19:32:00,
2013-04-14 15:43:00,42.0,30.0,-100.00,North,6,9.0,17.0,61,-99.99,,,-99.99,,2013-04-14 19:43:00,
2013-04-14 15:52:00,42.0,30.0,-100.00,East,99,6.0,10.0,61,-99.99,,,-99.99,,2013-04-14 19:52:00,
2013-04-14 16:03:00,43.0,30.0,-100.00,SW,227,6.0,13.0,61,-99.99,,,-99.99,,2013-04-14 20:03:00,
2013-04-14 16:13:00,42.0,30.0,-100.00,South,191,7.0,11.0,61,-99.99,,,-99.99,,2013-04-14 20:13:00,
2013-04-14 16:22:00,42.0,30.0,-100.00,ESE,119,5.0,11.0,61,-99.99,,,-99.99,,2013-04-14 20:22:00,
2013-04-14 16:33:00,42.0,30.0,-100.00,ENE,75,3.0,8.0,64,-99.99,,,-99.99,,2013-04-14 20:33:00,
2013-04-14 16:43:00,41.0,31.0,-100.00,SE,129,4.0,10.0,67,-99.99,,,-99.99,,2013-04-14 20:43:00,
2013-04-14 16:52:00,43.0,30.0,-100.00,SSW,193,6.0,15.0,60,-99.99,,,-99.99,,2013-04-14 20:52:00,
2013-04-14 17:02:00,43.0,29.0,-100.00,SSE,158,6.0,13.0,59,-99.99,,,-99.99,,2013-04-14 21:02:00,
2013-04-14 17:13:00,42.0,29.0,-100.00,NNE,27,5.0,15.0,59,-99.99,,,-99.99,,2013-04-14 21:13:00,
2013-04-14 17:23:00,43.0,29.0,-100.00,East,82,5.0,10.0,58,-99.99,,,-99.99,,2013-04-14 21:23:00,
2013-04-14 17:33:00,42.0,28.0,-100.00,East,79,9.0,17.0,57,-99.99,,,-99.99,,2013-04-14 21:33:00,
2013-04-14 17:43:00,42.0,28.0,-100.00,East,80,5.0,13.0,57,-99.99,,,-99.99,,2013-04-14 21:43:00,
2013-04-14 17:53:00,43.0,29.0,-100.00,West,260,5.0,11.0,57,-99.99,,,-99.99,,2013-04-14 21:53:00,
2013-04-14 18:03:00,42.0,29.0,-100.00,ENE,65,6.0,13.0,59,-99.99,,,-99.99,,2013-04-14 22:03:00,
2013-04-14 18:13:00,41.0,29.0,-100.00,ESE,109,4.0,11.0,60,-99.99,,,-99.99,,2013-04-14 22:13:00,
2013-04-14 18:23:00,41.0,29.0,-100.00,NNE,16,6.0,17.0,61,-99.99,,,-99.99,,2013-04-14 22:23:00,
2013-04-14 18:33:00,41.0,29.0,-100.00,SSE,160,5.0,11.0,63,-99.99,,,-99.99,,2013-04-14 22:33:00,
2013-04-14 18:44:00,41.0,29.0,-100.00,ESE,106,4.0,11.0,63,-99.99,,,-99.99,,2013-04-14 22:44:00,
2013-04-14 18:52:00,40.0,29.0,-100.00,SE,138,5.0,17.0,65,-99.99,,,-99.99,,2013-04-14 22:52:00,
2013-04-14 19:02:00,40.0,30.0,-100.00,East,101,3.0,13.0,67,-99.99,,,-99.99,,2013-04-14 23:02:00,
2013-04-14 19:13:00,40.0,30.0,-100.00,West,277,3.0,10.0,67,-99.99,,,-99.99,,2013-04-14 23:13:00,
2013-04-14 19:23:00,40.0,30.0,-100.00,SE,124,4.0,11.0,67,-99.99,,,-99.99,,2013-04-14 23:23:00,
2013-04-14 19:33:00,39.0,30.0,-100.00,NE,43,4.0,11.0,67,-99.99,,,-99.99,,2013-04-14 23:33:00,
2013-04-14 19:43:00,39.0,30.0,-100.00,NNE,13,3.0,10.0,70,-99.99,,,-99.99,,2013-04-14 23:43:00,
2013-04-14 19:52:00,38.0,31.0,-100.00,WNW,294,3.0,6.0,74,-99.99,,,-99.99,,2013-04-14 23:52:00,
2013-04-14 20:02:00,38.0,31.0,-100.00,West,277,1.0,4.0,76,-99.99,,,-99.99,,2013-04-15 00:02:00,
2013-04-14 20:13:00,37.0,31.0,-100.00,SW,220,1.0,2.0,78,-99.99,,,-99.99,,2013-04-15 00:13:00,
2013-04-14 20:23:00,37.0,31.0,-100.00,WNW,283,1.0,4.0,78,-99.99,,,-99.99,,2013-04-15 00:23:00,
2013-04-14 20:33:00,37.0,31.0,-100.00,SW,215,0.0,2.0,78,-99.99,,,-99.99,,2013-04-15 00:33:00,
2013-04-14 20:42:00,36.0,31.0,-100.00,NE,51,0.0,2.0,79,-99.99,,,-99.99,,2013-04-15 00:42:00,
2013-04-14 20:52:00,37.0,31.0,-100.00,NE,50,1.0,2.0,79,-99.99,,,-99.99,,2013-04-15 00:52:00,
2013-04-14 21:02:00,36.0,31.0,-100.00,East,88,1.0,2.0,79,-99.99,,,-99.99,,2013-04-15 01:02:00,
2013-04-14 21:13:00,37.0,30.0,-100.00,SE,137,0.0,2.0,75,-99.99,,,-99.99,,2013-04-15 01:13:00,
2013-04-14 21:23:00,37.0,30.0,-100.00,ESE,110,0.0,2.0,75,-99.99,,,-99.99,,2013-04-15 01:23:00,
2013-04-14 21:33:00,37.0,30.0,-100.00,West,263,0.0,0.0,77,-99.99,,,-99.99,,2013-04-15 01:33:00,
2013-04-14 21:42:00,35.0,30.0,-100.00,WSW,253,1.0,2.0,81,-99.99,,,-99.99,,2013-04-15 01:42:00,
2013-04-14 21:52:00,35.0,30.0,-100.00,South,175,1.0,2.0,80,-99.99,,,-99.99,,2013-04-15 01:52:00,
2013-04-14 22:03:00,35.0,30.0,-100.00,SW,220,1.0,2.0,81,-99.99,,,-99.99,,2013-04-15 02:03:00,
2013-04-14 22:12:00,36.0,30.0,-100.00,SE,136,2.0,6.0,79,-99.99,,,-99.99,,2013-04-15 02:12:00,
2013-04-14 22:22:00,35.0,30.0,-100.00,NW,319,1.0,2.0,80,-99.99,,,-99.99,,2013-04-15 02:22:00,
2013-04-14 22:32:00,34.0,30.0,-100.00,West,271,2.0,4.0,84,-99.99,,,-99.99,,2013-04-15 02:32:00,
2013-04-14 22:42:00,34.0,30.0,-100.00,ESE,118,3.0,4.0,84,-99.99,,,-99.99,,2013-04-15 02:42:00,
2013-04-14 22:52:00,35.0,30.0,-100.00,ESE,118,3.0,6.0,82,-99.99,,,-99.99,,2013-04-15 02:52:00,
2013-04-14 23:03:00,35.0,30.0,-100.00,ESE,114,2.0,6.0,81,-99.99,,,-99.99,,2013-04-15 03:03:00,
2013-04-14 23:12:00,35.0,30.0,-100.00,South,185,1.0,4.0,82,-99.99,,,-99.99,,2013-04-15 03:12:00,
2013-04-14 23:22:00,32.0,29.0,-100.00,SSE,161,1.0,2.0,85,-99.99,,,-99.99,,2013-04-15 03:22:00,
2013-04-14 23:33:00,32.0,30.0,-100.00,South,171,1.0,2.0,90,-99.99,,,-99.99,,2013-04-15 03:33:00,
2013-04-14 23:43:00,32.0,29.0,-100.00,West,271,0.0,2.0,89,-99.99,,,-99.99,,2013-04-15 03:43:00,
2013-04-14 23:54:00,31.0,29.0,-100.00,WSW,252,0.0,2.0,91,-99.99,,,-99.99,,2013-04-15 03:54:00,